[ hide orbit diagram ]
For accurate long-term ephemerides, please instead use our Horizons system.This orbit viewer was implemented using two-body methods, and hence should not be used for determining accurate long-term trajectories (over several years or decades) or planetary encounter circumstances.
Orbital Elements at Epoch 2459200.5 (2020-Dec-17.0) TDB
Reference: JPL 30 (heliocentric ecliptic J2000)
Element | Value | Uncertainty (1-sigma) | Units |
e | .06947904521479617 | 2.9801e-08 | |
a | 2.342800564695372 | 8.813e-09 | au |
q | 2.180025018331652 | 7.3446e-08 | au |
i | 6.102554424786614 | 3.1407e-06 | deg |
node | 99.39886055281438 | 3.7036e-05 | deg |
peri | 188.88800759 | 4.8702e-05 | deg |
M | 352.247965511528 | 3.1814e-05 | deg |
tp | 2459228.704253038717 (2021-Jan-14.20425304) | 0.00011573 | TDB |
period | 1309.789205535322 3.59 | 7.3906e-06 2.023e-08 | d yr |
n | .274853387460057 | 1.5509e-09 | deg/d |
Q | 2.505576111059092 | 9.4253e-09 | au |
|
| | Orbit Determination Parameters
Additional Information
|
[ show covariance matrix ]
Physical Parameter Table
Parameter |
Symbol |
Value |
Units |
Sigma |
Reference |
Notes |
absolute magnitude |
H |
14.8 |
|
n/a |
MPO468198 |
|
diameter |
diameter |
3.371 |
km |
0.402 |
urn:nasa:pds:neowise_diameters_albedos::2.0[mainbelt] (http://adsabs.harvard.edu/abs/2011ApJ...741...68M) |
|
geometric albedo |
albedo |
0.170 |
|
0.048 |
urn:nasa:pds:neowise_diameters_albedos::2.0[mainbelt] (http://adsabs.harvard.edu/abs/2011ApJ...741...68M) |
|
|
37131 (2000 VW29) Discovered 2000-Nov-01 by LINEAR at Socorro |
Reference: 20020227/Numbers.arc | Last Updated: 2004-04-19 |
|
[ show close-approach data ]
Alternate Designations
2000 VW29 = 1989 VP3 = 1999 NO13 |
|
|